C4984 Weather Reports


Display with metric or nautical units.
time (UTC)temp
F
wind
direction
speed
MPH
gust
MPH
rain 1hr
in
rain 24hr
in
rain mn
in
humidity
%
barometer
mb
20260503032027 47 205 0.0 0.0 0.00 0.03 0.03 95 1009.1
20260503031012 48 205 0.0 0.0 0.00 0.03 0.03 94 1008.8
20260503025956 48 205 0.0 0.0 0.00 0.03 0.03 95 1008.8
20260503024922 48 205 0.0 0.0 0.00 0.03 0.03 94 1008.8
20260503023931 49 205 0.0 0.0 0.00 0.03 0.03 95 1008.7
20260503020714 50 205 0.0 0.0 0.00 0.03 0.03 95 1008.7
20260503015725 50 205 0.0 0.0 0.00 0.03 0.03 94 1008.6
20260503014743 50 205 0.0 0.0 0.00 0.03 0.03 94 1008.6
20260503012649 50 205 0.0 0.0 0.00 0.03 0.03 94 1008.2
20260503010528 51 205 0.0 0.0 0.00 0.03 0.03 93 1008.1
20260503005536 51 205 0.0 0.0 0.00 0.03 0.03 92 1007.9
20260503004557 51 205 0.0 0.0 0.00 0.03 0.03 91 1007.9
20260503003543 52 205 0.0 0.0 0.00 0.03 0.03 90 1007.6
20260503002555 52 205 0.0 0.0 0.00 0.03 0.03 90 1007.4
20260503001614 53 205 0.0 0.0 0.00 0.03 0.03 90 1007.4
20260503000540 54 346 0.0 0.0 0.00 0.03 0.03 89 1007.1
20260502235516 54 346 0.0 0.0 0.00 0.03 0.03 89 1007.0
20260502234452 55 346 0.0 0.0 0.00 0.03 0.03 89 1007.0
20260502233449 55 346 0.0 0.0 0.00 0.03 0.03 88 1006.8
20260502232503 55 346 0.0 0.0 0.00 0.03 0.03 88 1006.6
20260502231435 55 346 0.0 0.0 0.00 0.03 0.03 87 1006.6
20260502230442 56 346 0.0 0.0 0.00 0.03 0.03 87 1006.5
20260502225452 56 346 0.0 0.0 0.00 0.03 0.03 86 1006.5
20260502224420 56 346 0.0 0.0 0.00 0.03 0.03 86 1006.5
20260502223351 56 0 0.0 0.0 0.00 0.03 0.03 85 1006.5
20260502222348 56 0 0.0 0.0 0.00 0.03 0.03 83 1006.5
20260502221401 56 0 0.0 0.0 0.00 0.03 0.03 81 1006.4
20260502220421 56 0 0.0 0.0 0.00 0.03 0.03 82 1006.4
20260502215409 57 0 0.0 0.0 0.00 0.03 0.03 81 1006.1
20260502214423 57 0 0.0 0.0 0.00 0.03 0.03 81 1006.1
20260502213414 57 194 0.0 0.0 0.00 0.03 0.03 83 1006.3
20260502212426 57 349 0.0 1.0 0.00 0.03 0.03 82 1006.4
20260502211413 56 349 0.0 0.0 0.00 0.03 0.03 85 1006.4
20260502210417 56 349 0.0 1.0 0.00 0.03 0.03 84 1006.4
20260502204308 56 237 0.0 1.0 0.00 0.03 0.03 84 1006.4
20260502202153 58 142 0.0 2.0 0.00 0.03 0.03 82 1006.2
20260502200016 58 74 0.0 2.0 0.00 0.03 0.03 84 1006.4
20260502194959 57 3 0.0 1.0 0.00 0.03 0.03 81 1006.5
20260502192805 56 359 0.0 2.0 0.00 0.03 0.03 84 1006.9
20260502191750 56 27 0.0 1.0 0.00 0.03 0.03 84 1006.9
20260502185630 57 307 0.0 2.0 0.00 0.03 0.03 86 1007.0
20260502184620 57 88 0.0 2.0 0.00 0.03 0.03 87 1007.0
20260502183636 57 283 0.0 2.0 0.00 0.03 0.03 89 1007.2
20260502180327 54 304 0.0 2.0 0.00 0.03 0.03 90 1007.6
20260502162833 53 359 0.0 2.0 0.00 0.03 0.03 92 1009.1
20260502160650 53 347 0.0 1.0 0.00 0.02 0.02 93 1008.9
20260502151609 53 346 0.0 1.0 0.00 0.02 0.02 93 1008.6
20260502150625 53 352 0.0 1.0 0.00 0.02 0.02 92 1008.9
20260502130459 52 70 0.0 1.0 0.00 0.00 0.00 93 1007.6
20260502123451 52 203 0.0 1.0 0.00 0.00 0.00 93 1007.2
20260502122447 52 184 0.0 0.0 0.00 0.00 0.00 93 1007.1
20260502120259 51 148 0.0 1.0 0.00 0.00 0.00 93 1007.0
20260502114105 51 134 0.0 0.0 0.00 0.00 0.00 93 1007.1
20260502113130 51 127 0.0 0.0 0.00 0.00 0.00 93 1007.1
20260502112142 52 106 0.0 0.0 0.00 0.00 0.00 93 1007.5
20260502111200 52 205 0.0 1.0 0.00 0.00 0.00 93 1007.5
20260502110156 52 135 0.0 0.0 0.00 0.00 0.00 93 1007.5
20260502105125 52 131 0.0 1.0 0.00 0.00 0.00 92 1007.4
20260502104102 52 131 0.0 1.0 0.00 0.00 0.00 93 1007.5
20260502103103 52 144 0.0 1.0 0.00 0.00 0.00 93 1007.5
20260502102117 52 148 0.0 1.0 0.00 0.00 0.00 94 1007.5
20260502101115 51 150 0.0 0.0 0.00 0.00 0.00 94 1007.5
20260502100116 51 150 0.0 0.0 0.00 0.00 0.00 94 1007.5
20260502091001 51 134 0.0 0.0 0.00 0.00 0.00 94 1007.1
20260502070752 51 60 0.0 0.0 0.00 0.00 0.00 93 1006.6
20260502065751 51 60 0.0 0.0 0.00 0.00 0.00 93 1006.8
20260502063722 51 60 0.0 0.0 0.00 0.00 0.00 93 1006.6
20260502062747 51 60 0.0 0.0 0.00 0.00 0.00 93 1006.7
20260502061733 51 60 0.0 0.0 0.00 0.00 0.00 93 1006.7
20260502060715 51 60 0.0 0.0 0.00 0.00 0.00 92 1006.8
20260502055716 51 60 0.0 0.0 0.00 0.00 0.00 92 1006.9
20260502054721 51 60 0.0 0.0 0.00 0.00 0.00 92 1006.9
20260502053726 51 60 0.0 0.0 0.00 0.00 0.00 92 1007.0
20260502052742 51 60 0.0 0.0 0.00 0.00 0.00 91 1007.4
20260502051715 51 60 0.0 0.0 0.00 0.00 0.00 91 1007.4
20260502050728 51 60 0.0 0.0 0.00 0.00 0.00 91 1007.4
20260502045659 51 60 0.0 0.0 0.00 0.00 0.00 90 1007.4
20260502044653 51 60 0.0 0.0 0.00 0.00 0.00 90 1007.4
20260502042550 52 60 0.0 0.0 0.00 0.00 0.00 89 1007.5
20260502041525 52 60 0.0 0.0 0.00 0.00 0.00 89 1007.5
20260502040459 52 60 0.0 0.0 0.00 0.00 0.00 88 1007.7
20260502035501 52 60 0.0 0.0 0.00 0.00 0.00 88 1007.9
20260502033322 52 60 0.0 0.0 0.00 0.00 0.00 88 1007.7